La Grange, TX

2:03 AM CST on December 08, 2019 (GMT -0600)
La Grange

Weather History for K3T5 - November, 2019

Change the Weather History Date:

Tuesday, November 12, 2019

  Actual Average (KAUS) Record (KAUS)
Temperature  
Mean Temperature 37 °F -  
Max Temperature 42 °F 68 °F 87 °F (1988)
Min Temperature 32 °F 48 °F 26 °F (1950)
Degree Days  
Heating Degree Days 28    
Moisture  
Dew Point 21 °F    
Average Humidity 55    
Maximum Humidity 84    
Minimum Humidity 40    
Precipitation  
Precipitation 0.00 in - - ()
Sea Level Pressure  
Sea Level Pressure 30.45 in    
Wind  
Wind Speed 13 mph (North)    
Max Wind Speed 20 mph    
Max Gust Speed 33 mph    
Visibility 10 miles    
Events Rain    
Averages and records for this station are not official NWS values.
T = Trace of Precipitation, MM = Missing Value Source: NWS Daily Summary

Daily Weather History Graph

Daily Weather History Graph

Search for Another Location

Airport or City:

Astronomy

Nov. 12, 2019 Rise Set
Actual Time 6:50 AM CST 5:33 PM CST
Civil Twilight 6:24 AM CST 5:58 PM CST
Nautical Twilight 5:56 AM CST 6:27 PM CST
Astronomical Twilight 5:27 AM CST 6:55 PM CST
Moon 5:59 PM CST (11/12) 6:46 AM CST (11/12)
Length of Visible Light 11h 33m
Length of Day
10h 43m
Full, 100% of the Moon is Illuminated
Nov 12
Full
Nov 19
Last Quarter
Nov 26
New
Dec 4
First Quarter
Dec 11
Full

Hourly Weather History & Observations

Time (CST) Temp. Windchill Dew Point Humidity Pressure Visibility Wind Dir Wind Speed Gust Speed Precip Events Conditions
12:35 AM 35.1 °F 24.8 °F 30.7 °F 84% 30.38 in 10.0 mi North 17.3 mph 32.2 mph N/A   Overcast
12:55 AM 34.9 °F 26.2 °F 29.7 °F 81% 30.38 in 10.0 mi North 12.7 mph 29.9 mph N/A   Overcast
1:15 AM 35.1 °F 24.8 °F 29.1 °F 79% 30.38 in 10.0 mi North 17.3 mph 24.2 mph N/A   Overcast
1:55 AM 35.1 °F 24.1 °F 27.5 °F 74% 30.39 in 10.0 mi North 19.6 mph 29.9 mph N/A   Overcast
2:15 AM 34.9 °F 23.9 °F 26.6 °F 72% 30.40 in 10.0 mi North 19.6 mph 32.2 mph N/A   Overcast
2:35 AM 35.1 °F 24.8 °F 25.9 °F 69% 30.41 in 10.0 mi North 17.3 mph 33.4 mph N/A   Overcast
2:55 AM 35.2 °F 25.0 °F 26.1 °F 69% 30.42 in 10.0 mi North 17.3 mph 29.9 mph N/A   Overcast
3:15 AM 34.9 °F 24.2 °F 25.7 °F 69% 30.42 in 10.0 mi North 18.4 mph 27.6 mph N/A   Overcast
3:35 AM 34.9 °F 24.6 °F 25.2 °F 68% 30.43 in 10.0 mi North 17.3 mph 28.8 mph N/A   Overcast
3:55 AM 34.9 °F 24.2 °F 25.7 °F 69% 30.44 in 10.0 mi North 18.4 mph 27.6 mph N/A Rain Light Rain
4:15 AM 34.7 °F 26.4 °F 25.3 °F 69% 30.45 in 10.0 mi North 11.5 mph 29.9 mph N/A   Overcast
4:35 AM 34.5 °F 25.7 °F 25.2 °F 69% 30.45 in 10.0 mi North 12.7 mph 27.6 mph N/A   Overcast
4:55 AM 34.5 °F 26.2 °F 24.6 °F 67% 30.46 in 10.0 mi North 11.5 mph 20.7 mph N/A   Overcast
5:35 AM 34.2 °F 24.4 °F 23.5 °F 65% 30.46 in 10.0 mi North 15.0 mph 24.2 mph N/A   Mostly Cloudy
5:55 AM 33.8 °F 23.5 °F 21.6 °F 61% 30.47 in 10.0 mi North 16.1 mph 24.2 mph N/A   Scattered Clouds
6:15 AM 33.3 °F 22.8 °F 19.9 °F 58% 30.48 in 10.0 mi North 16.1 mph 32.2 mph N/A   Clear
6:35 AM 33.4 °F 23.5 °F 20.3 °F 59% 30.49 in 10.0 mi NNE 15.0 mph 24.2 mph N/A   Scattered Clouds
6:55 AM 33.3 °F 24.1 °F 19.6 °F 57% 30.50 in 10.0 mi North 12.7 mph 29.9 mph N/A   Scattered Clouds
7:15 AM 33.1 °F 22.6 °F 18.5 °F 55% 30.50 in 10.0 mi North 16.1 mph 29.9 mph N/A   Scattered Clouds
7:35 AM 33.1 °F 24.4 °F 19.2 °F 57% 30.52 in 10.0 mi North 11.5 mph 23.0 mph N/A   Scattered Clouds
7:55 AM 33.3 °F 22.8 °F 19.0 °F 56% 30.52 in 10.0 mi North 16.1 mph 24.2 mph N/A   Scattered Clouds
8:15 AM 33.1 °F 23.4 °F 20.5 °F 60% 30.53 in 10.0 mi North 13.8 mph 25.3 mph N/A   Clear
8:55 AM 33.4 °F 24.3 °F 18.5 °F 54% 30.55 in 10.0 mi North 12.7 mph 29.9 mph N/A   Clear
9:15 AM 33.1 °F 22.2 °F 17.8 °F 53% 30.55 in 10.0 mi North 17.3 mph 24.2 mph N/A   Clear
9:35 AM 33.3 °F 24.6 °F 17.6 °F 53% 30.54 in 10.0 mi North 11.5 mph 24.2 mph N/A   Clear
9:55 AM 33.6 °F 24.6 °F 19.4 °F 56% 30.54 in 10.0 mi North 12.7 mph 23.0 mph N/A   Clear
10:15 AM 34.0 °F 25.0 °F 18.9 °F 54% 30.55 in 10.0 mi North 12.7 mph 20.7 mph N/A   Clear
10:55 AM 36.5 °F 27.0 °F 19.6 °F 50% 30.54 in 10.0 mi North 16.1 mph 24.2 mph N/A   Clear
11:55 AM 38.3 °F 29.7 °F 18.9 °F 46% 30.52 in 10.0 mi North 15.0 mph 23.0 mph N/A   Clear
12:15 PM 37.2 °F 27.9 °F 18.7 °F 47% 30.51 in 10.0 mi North 16.1 mph 25.3 mph N/A   Clear
12:35 PM 38.1 °F 29.5 °F 18.7 °F 46% 30.51 in 10.0 mi NNW 15.0 mph 25.3 mph N/A   Clear
12:55 PM 38.5 °F 31.1 °F 18.7 °F 45% 30.50 in 10.0 mi North 11.5 mph 20.7 mph N/A   Clear
1:15 PM 38.8 °F 32.6 °F 18.3 °F 44% 30.50 in 10.0 mi North 9.2 mph 18.4 mph N/A   Clear
1:35 PM 39.9 °F 31.8 °F 19.2 °F 43% 30.48 in 10.0 mi NNW 15.0 mph 19.6 mph N/A   Clear
1:55 PM 40.5 °F 33.6 °F 19.2 °F 43% 30.47 in 10.0 mi North 11.5 mph 18.4 mph N/A   Clear
2:15 PM 41.4 °F 34.7 °F 19.4 °F 41% 30.47 in 10.0 mi North 11.5 mph 19.6 mph N/A   Clear
2:35 PM 41.9 °F 35.0 °F 19.2 °F 40% 30.46 in 10.0 mi North 12.7 mph 20.7 mph N/A   Clear
3:15 PM 42.1 °F 35.2 °F 19.4 °F 40% 30.44 in 10.0 mi North 12.7 mph 24.2 mph N/A   Clear
3:35 PM 41.5 °F 35.9 °F 19.2 °F 41% 30.44 in 10.0 mi North 9.2 mph 18.4 mph N/A   Clear
3:55 PM 41.4 °F 34.7 °F 19.2 °F 41% 30.44 in 10.0 mi NNW 11.5 mph 17.3 mph N/A   Clear
4:15 PM 41.9 °F 35.4 °F 19.8 °F 41% 30.44 in 10.0 mi North 11.5 mph 19.6 mph N/A   Clear
4:35 PM 42.1 °F 37.1 °F 19.8 °F 41% 30.43 in 10.0 mi North 8.1 mph - N/A   Clear
4:55 PM 41.9 °F 35.9 °F 19.9 °F 42% 30.42 in 10.0 mi North 10.4 mph - N/A   Clear
5:15 PM 41.4 °F 36.8 °F 20.1 °F 43% 30.42 in 10.0 mi North 6.9 mph - N/A   Clear
5:35 PM 41.0 °F 35.2 °F 19.8 °F 43% 30.42 in 10.0 mi North 9.2 mph - N/A   Clear
5:55 PM 40.1 °F 35.3 °F 19.9 °F 44% 30.41 in 10.0 mi North 6.9 mph - N/A   Clear
6:15 PM 39.2 °F 35.9 °F 20.5 °F 47% 30.41 in 10.0 mi North 4.6 mph - N/A   Clear
6:35 PM 38.5 °F 34.1 °F 21.2 °F 50% 30.41 in 10.0 mi North 5.8 mph - N/A   Clear
6:55 PM 38.3 °F 33.2 °F 21.2 °F 50% 30.40 in 10.0 mi North 6.9 mph - N/A   Clear
7:15 PM 37.8 °F 33.3 °F 21.2 °F 51% 30.41 in 10.0 mi North 5.8 mph - N/A   Clear
7:35 PM 37.2 °F 32.6 °F 21.6 °F 53% 30.41 in 10.0 mi North 5.8 mph - N/A   Clear
7:55 PM 36.5 °F 31.0 °F 21.7 °F 55% 30.41 in 10.0 mi North 6.9 mph - N/A   Clear
8:15 PM 36.3 °F 32.5 °F 20.8 °F 53% 30.41 in 10.0 mi North 4.6 mph - N/A   Clear
8:55 PM 35.8 °F 30.1 °F 19.6 °F 52% 30.41 in 10.0 mi North 6.9 mph - N/A   Clear
9:15 PM 35.6 °F 30.7 °F 19.2 °F 51% 30.41 in 10.0 mi North 5.8 mph - N/A   Clear
9:35 PM 35.1 °F 30.1 °F 18.7 °F 51% 30.41 in 10.0 mi North 5.8 mph - N/A   Clear
9:55 PM 34.7 °F 28.8 °F 18.7 °F 52% 30.40 in 10.0 mi North 6.9 mph - N/A   Clear
10:15 PM 34.2 °F 29.0 °F 18.7 °F 53% 30.41 in 10.0 mi North 5.8 mph - N/A   Clear
10:35 PM 33.8 °F 29.6 °F 18.9 °F 54% 30.40 in 10.0 mi North 4.6 mph - N/A   Clear
11:15 PM 32.9 °F - 19.0 °F 57% 30.41 in 10.0 mi Calm Calm - N/A   Clear
11:35 PM 32.7 °F - 19.2 °F 58% 30.42 in 10.0 mi Calm Calm - N/A   Clear
11:55 PM 32.7 °F - 18.9 °F 57% 30.42 in 10.0 mi Calm Calm - N/A   Clear